Find Starlink 33545

NORAD ID: 62101 Int'l Des: 2024-220 Owner: SPXS Country: US Constellation: starlink operational
LEOCIRCULAR

Live Position

Loading 3D Globe...

About Starlink 33545

Description loading...

Upcoming Passes

Passes for default location (London). Set your location on the main map for personalized predictions.

Altitude History

Loading altitude history...

Two-Line Element Set

1 62101U 24220P 26127.27284532 .00024282 00000-0 88920-3 0 9999
2 62101 43.0025 234.4487 0001880 257.2617 102.8025 15.27572124 81985
Epoch: May 7, 2026 • Age: 7 hours

Current Status

Altitude 494.0 km
Velocity 7.62 km/s
Sub-Earth Point -40.57°S, 44.38°E
Launch Date Nov 25, 2024
Age 1.4 years
Type internet

Technical Details

Classification Payload
Mass 530.00 kg
Dry Mass 500.00 kg
Total Mass 530.00 kg
Length 0.30 m
Diameter 4.10 m
Span 29.00 m
Shape Box + pan
Manufacturer SPXS
Bus Type Starlink V2MO
Phase Status In Orbit
Owner/State SPXS/US

Most Searched